Flag for Norway Weather past 2 weeks in Hamar, Norway

36 °F

Passing clouds.

Feels Like: 31 °F
Forecast: 27 / 44 °F
Wind: 6 mph from Southwest

Location: Oslo Gardermoen Airport

Current Time: Nov 27, 2015 at 1:12:28 AM

Latest Report: Nov 27, 2015 at 12:50 AM

Visibility: N/A

Pressure: 29.53 "Hg

Humidity: 93%

Dew point: 34 °F

Location of HamarLocation

Historic Weather in Hamar — Graph


Hamar temperature yesterday

Maximum temperature yesterday: 36 °F (at 10:50 PM)
Minimum temperature yesterday: 23 °F (at 9:20 AM)
Average temperature yesterday: 29 °F

Past Weeks' High & Low Weather Summary

High48 °F (Nov 13, 11:20 AM)100% (Nov 12, 1:20 AM)29.92 "Hg (Nov 12, 1:20 AM)
Low14 °F (Nov 22, 6:20 AM)59% (Nov 22, 11:50 AM)29.15 "Hg (Nov 17, 11:20 PM)
Average29 °F91%29.51 "Hg
* Reported Nov 11 11:20 PM — Nov 26 11:50 PM, Hamar, Weather by CustomWeather, © 2015

Note: Actual official high and low records may vary slightly from our data, if they occured in-between our weather recording intervals... More about our weather records


Hamar weather history for previous 24 hours

Time TempWeatherWind HumidityBarometerVisibility
11:50 PM
Thu, Nov 26
36 °FPassing clouds.10 mph87%29.56 "HgN/A
10:50 PM36 °FPassing clouds.13 mph81%29.56 "HgN/A
10:20 PM34 °FClear.15 mph81%29.56 "Hg10 mi
9:50 PM34 °FClear.12 mph81%29.56 "Hg10 mi
9:20 PM34 °FClear.9 mph81%29.59 "Hg10 mi
8:50 PM34 °FClear.10 mph81%29.59 "Hg10 mi
8:20 PM32 °FClear.14 mph87%29.59 "Hg10 mi
7:50 PM32 °FClear.9 mph87%29.62 "Hg10 mi
7:20 PM30 °FPassing clouds.8 mph93%29.62 "HgN/A
6:50 PM30 °FClear.8 mph93%29.62 "Hg10 mi
6:20 PM30 °FClear.9 mph93%29.62 "Hg10 mi
5:50 PM30 °FClear.10 mph93%29.65 "Hg10 mi
5:20 PM30 °FPassing clouds.10 mph93%29.65 "HgN/A
4:50 PM30 °FPartly cloudy.8 mph93%29.65 "HgN/A
4:20 PM30 °FPassing clouds.7 mph86%29.68 "HgN/A
3:50 PM30 °FPassing clouds.6 mph86%29.68 "HgN/A
3:20 PM28 °FPartly sunny.9 mph93%29.68 "HgN/A
2:50 PM30 °FPartly sunny.12 mph86%29.68 "HgN/A
2:20 PM30 °FScattered clouds.8 mph86%29.68 "HgN/A
1:50 PM28 °FScattered clouds.8 mph93%29.68 "HgN/A
1:20 PM30 °FPassing clouds.6 mph86%29.71 "HgN/A
12:50 PM28 °FPassing clouds.3 mph93%29.71 "HgN/A
12:20 PM28 °FPassing clouds.5 mph86%29.71 "HgN/A
11:50 AM28 °FPassing clouds.3 mph86%29.74 "HgN/A
11:20 AM27 °FSunny.No wind93%29.74 "Hg10 mi
10:50 AM25 °FScattered clouds.No wind93%29.74 "HgN/A
10:20 AM25 °FScattered clouds.2 mph93%29.74 "HgN/A
9:50 AM23 °FSunny.No wind93%29.71 "Hg10 mi
9:20 AM23 °FSunny.2 mph93%29.71 "Hg10 mi
8:50 AM27 °FSunny.No wind86%29.71 "Hg10 mi
8:20 AM27 °FClear.2 mph86%29.71 "Hg10 mi
7:50 AM25 °FClear.No wind86%29.71 "Hg10 mi
7:20 AM25 °FClear.5 mph86%29.68 "Hg10 mi
6:50 AM27 °FClear.3 mph86%29.68 "Hg10 mi
6:20 AM27 °FPassing clouds.3 mph86%29.68 "HgN/A
5:50 AM25 °FPassing clouds.6 mph86%29.68 "HgN/A
5:20 AM25 °FClear.5 mph93%29.65 "Hg10 mi
4:50 AM27 °FClear.2 mph86%29.65 "Hg10 mi
3:50 AM28 °FClear.No wind86%29.62 "Hg10 mi
3:20 AM27 °FClear.No wind86%29.62 "Hg10 mi
2:50 AM25 °FClear.3 mph86%29.59 "Hg10 mi
2:20 AM27 °FClear.No wind93%29.59 "Hg10 mi
1:50 AM28 °FPassing clouds.3 mph86%29.59 "HgN/A
1:20 AM27 °FClear.1 mph93%29.56 "Hg10 mi
Weather by CustomWeather, © 2015

See weather overviewHow to use our weather pages